Location: Demmingen
(48.6757°N, 10.4375°E)
Time: 10:18:04
(UTC+00:00)

Meteor 1-12 Rocket - Pass Details

Date: 23 May 2024
Orbit: 855 x 925 km, 81.2° (Epoch: 15 June)

Event Time Altitude Azimuth Distance (km) Brightness Sun altitude
Rises 00:01:11 0° 345° (NNW) 3,513 8.5 -19.9°
Reaches altitude 10° 00:03:39 10° 342° (NNW) 2,579 7.6 -19.8°
Maximum altitude 00:09:25 60° 264° (W) 1,033 4.5 -19.6°
Enters shadow 00:11:50 35° 200° (SSW) 1,432 4.8 -19.5°
